User: anonymous   Login
Location: Camp Creek
(33.9000°N, 111.8167°W)
Time: 21:23:50
(UTC-07:00)
Language:

Cosmos 2322 Rocket - Orbit

View from above orbital plane
View from above orbital plane
View from above satellite
View from above satellite

Ground track
Ground track

The orbit data is extracted from the following two-line orbital elements,

1 23705U 95058B   14298.84285120  .00000220  00000-0  13804-3 0  3805
2 23705 071.0238 254.2665 0014190 322.0122 037.9999 14.15027380980629
Epoch (UTC): 25 October 2014 20:13:42
Eccentricity: 0.0014190
inclination: 71.0238°
perigee height: 832 km
apogee height: 852 km
right ascension of ascending node: 254.2665°
argument of perigee: 322.0122°
revolutions per day: 14.15027380
mean anomaly at epoch: 37.9999°
orbit number at epoch: 98062

The dashed part of the orbit path shows where the satellite is in the earth's shadow,  

DLR